Weather History for KLKU - March, 2014

Change the Weather History Date:

Wednesday, March 26, 2014

  Actual Average (KCHO) Record (KCHO)
Temperature  
Mean Temperature 31 °F 49 °F  
Max Temperature 39 °F 61 °F 85 °F (1939)
Min Temperature 23 °F 38 °F 19 °F (1906)
Degree Days  
Heating Degree Days 34 16  
Month to date heating degree days 516  
Since 1 July heating degree days 3928  
Cooling Degree Days 0 0  
Month to date cooling degree days 0  
Year to date cooling degree days 0  
Moisture  
Dew Point 15 °F    
Average Humidity 57    
Maximum Humidity 100    
Minimum Humidity 31    
Precipitation  
Precipitation 0.00 in 0.13 in 0.46 in (2010)
Month to date precipitation 2.97  
Year to date precipitation 8.44  
Sea Level Pressure  
Sea Level Pressure 30.08 in    
Wind  
Wind Speed 7 mph (WNW)    
Max Wind Speed 17 mph    
Max Gust Speed 30 mph    
Visibility 10 miles    
Events      
T = Trace of Precipitation, MM = Missing Value Source: NWS Daily Summary

Daily Weather History Graph

Daily Weather History Graph

Search for Another Location

Airport or City:

Trip Planner

Search our weather history database for the weather conditions in past years. The results will help you decide how hot, cold, wet, or windy it might be!

Date:

Astronomy

Mar. 26, 2014 Rise Set
Actual Time 7:06 AM EDT 7:29 PM EDT
Civil Twilight 6:39 AM EDT 7:55 PM EDT
Nautical Twilight 6:08 AM EDT 8:26 PM EDT
Astronomical Twilight 5:37 AM EDT 8:58 PM EDT
Moon 4:09 AM EDT (3/26) 3:09 PM EDT (3/26)
Length of Visible Light 13h 15m
Length of Day
12h 23m
Waning Crescent, 22% of the Moon is Illuminated
Mar 26
Waning Crescent
Mar 30
New
Apr 7
First Quarter
Apr 15
Full
Apr 22
Last Quarter

Hourly Weather History & Observations

Time (EDT) Temp. Windchill Dew Point Humidity Pressure Visibility Wind Dir Wind Speed Gust Speed Precip Events Conditions
12:15 AM 28.4 °F - 26.6 °F 93% 29.90 in 7.0 mi Calm Calm - N/A   Clear
12:35 AM 26.6 °F 22.6 °F 26.6 °F 100% 29.90 in 5.0 mi NW 3.5 mph - N/A   Clear
12:55 AM 26.6 °F 22.6 °F 26.6 °F 100% 29.90 in 7.0 mi NW 3.5 mph - N/A   Clear
1:15 AM 26.6 °F - 26.6 °F 100% 29.90 in 7.0 mi Calm Calm - N/A   Clear
1:35 AM 26.6 °F 22.6 °F 26.6 °F 100% 29.91 in 7.0 mi NW 3.5 mph - N/A   Scattered Clouds
1:55 AM 26.6 °F 20.0 °F 26.6 °F 100% 29.92 in 10.0 mi WNW 5.8 mph - N/A   Overcast
2:15 AM 26.6 °F 22.6 °F 26.6 °F 100% 29.92 in 10.0 mi West 3.5 mph - N/A   Overcast
2:35 AM 26.6 °F 21.2 °F 26.6 °F 100% 29.93 in 10.0 mi WNW 4.6 mph - N/A   Overcast
2:55 AM 28.4 °F 22.2 °F 24.8 °F 86% 29.92 in 10.0 mi WNW 5.8 mph - N/A   Scattered Clouds
3:15 AM 28.4 °F 19.1 °F 26.6 °F 93% 29.93 in 10.0 mi WNW 10.4 mph - N/A   Mostly Cloudy
3:35 AM 28.4 °F 22.2 °F 24.8 °F 86% 29.94 in 10.0 mi NW 5.8 mph - N/A   Scattered Clouds
3:55 AM 28.4 °F 20.4 °F 23.0 °F 80% 29.94 in 10.0 mi NW 8.1 mph - N/A   Clear
4:15 AM 28.4 °F 20.4 °F 21.2 °F 74% 29.95 in 10.0 mi WNW 8.1 mph - N/A   Clear
4:35 AM 28.4 °F 18.5 °F 17.6 °F 64% 29.96 in 10.0 mi WNW 11.5 mph 18.4 mph N/A   Clear
4:55 AM 28.4 °F 18.5 °F 15.8 °F 59% 29.97 in 10.0 mi NW 11.5 mph 17.3 mph N/A   Clear
5:15 AM 28.4 °F 18.0 °F 15.8 °F 59% 29.98 in 10.0 mi WNW 12.7 mph - N/A   Scattered Clouds
5:35 AM 26.6 °F 16.2 °F 15.8 °F 64% 29.99 in 10.0 mi WNW 11.5 mph 19.6 mph N/A   Overcast
5:55 AM 28.4 °F 18.5 °F 17.6 °F 64% 30.00 in 10.0 mi WNW 11.5 mph - N/A   Overcast
6:15 AM 26.6 °F 18.2 °F 17.6 °F 69% 30.00 in 10.0 mi WNW 8.1 mph - N/A   Overcast
6:35 AM 26.6 °F 16.8 °F 15.8 °F 64% 30.01 in 10.0 mi WNW 10.4 mph 17.3 mph N/A   Mostly Cloudy
6:55 AM 26.6 °F 15.7 °F 12.2 °F 55% 30.02 in 10.0 mi WNW 12.7 mph 18.4 mph N/A   Scattered Clouds
7:15 AM 26.6 °F 17.5 °F 12.2 °F 55% 30.03 in 10.0 mi WNW 9.2 mph - N/A   Clear
7:35 AM 26.6 °F 19.1 °F 12.2 °F 55% 30.05 in 10.0 mi WNW 6.9 mph - N/A   Clear
7:55 AM 26.6 °F 19.1 °F 12.2 °F 55% 30.07 in 10.0 mi West 6.9 mph - N/A   Clear
8:15 AM 28.4 °F 19.7 °F 12.2 °F 51% 30.07 in 10.0 mi West 9.2 mph - N/A   Clear
8:35 AM 28.4 °F 19.7 °F 12.2 °F 51% 30.09 in 10.0 mi WNW 9.2 mph - N/A   Clear
8:55 AM 30.2 °F 18.9 °F 10.4 °F 44% 30.10 in 10.0 mi WNW 16.1 mph 21.9 mph N/A   Clear
9:15 AM 30.2 °F 19.8 °F 12.2 °F 47% 30.11 in 10.0 mi NW 13.8 mph 21.9 mph N/A   Clear
9:35 AM 30.2 °F 18.9 °F 10.4 °F 44% 30.12 in 10.0 mi NW 16.1 mph 25.3 mph N/A   Clear
9:55 AM 30.2 °F 18.5 °F 10.4 °F 44% 30.13 in 10.0 mi WNW 17.3 mph 29.9 mph N/A   Clear
10:15 AM 32.0 °F 22.1 °F 10.4 °F 41% 30.14 in 10.0 mi WNW 13.8 mph 24.2 mph N/A   Scattered Clouds
10:35 AM 33.8 °F 24.8 °F 10.4 °F 38% 30.15 in 10.0 mi NW 12.7 mph 19.6 mph N/A   Scattered Clouds
10:55 AM 33.8 °F 24.3 °F 10.4 °F 38% 30.15 in 10.0 mi NW 13.8 mph 18.4 mph N/A   Scattered Clouds
11:15 AM 33.8 °F 25.8 °F 10.4 °F 38% 30.15 in 10.0 mi NW 10.4 mph 28.8 mph N/A   Clear
11:35 AM 33.8 °F 23.5 °F 10.4 °F 38% 30.15 in 10.0 mi WNW 16.1 mph 20.7 mph N/A   Scattered Clouds
11:55 AM 33.8 °F 25.8 °F 10.4 °F 38% 30.15 in 10.0 mi NW 10.4 mph 21.9 mph N/A   Scattered Clouds
12:15 PM 35.6 °F 27.5 °F 14.0 °F 41% 30.16 in 10.0 mi NW 11.5 mph 23.0 mph N/A   Scattered Clouds
12:35 PM 35.6 °F 26.6 °F 12.2 °F 38% 30.16 in 10.0 mi WNW 13.8 mph 23.0 mph N/A   Clear
12:55 PM 35.6 °F 25.9 °F 12.2 °F 38% 30.16 in 10.0 mi West 16.1 mph 21.9 mph N/A   Scattered Clouds
1:15 PM 35.6 °F 26.6 °F 12.2 °F 38% 30.16 in 10.0 mi WNW 13.8 mph 24.2 mph N/A   Scattered Clouds
1:35 PM 35.6 °F 28.0 °F 12.2 °F 38% 30.16 in 10.0 mi NW 10.4 mph 27.6 mph N/A   Clear
1:55 PM 35.6 °F 26.2 °F 12.2 °F 38% 30.16 in 10.0 mi NW 15.0 mph 24.2 mph N/A   Clear
2:15 PM 37.4 °F 28.5 °F 12.2 °F 36% 30.15 in 10.0 mi WNW 15.0 mph 21.9 mph N/A   Clear
2:35 PM 37.4 °F 29.8 °F 12.2 °F 36% 30.15 in 10.0 mi WNW 11.5 mph 21.9 mph N/A   Clear
2:55 PM 37.4 °F 28.2 °F 12.2 °F 36% 30.15 in 10.0 mi WNW 16.1 mph 24.2 mph N/A   Clear
3:15 PM 39.2 °F 30.2 °F 12.2 °F 33% 30.15 in 10.0 mi WNW 17.3 mph 23.0 mph N/A   Clear
3:35 PM 39.2 °F 31.6 °F 12.2 °F 33% 30.15 in 10.0 mi NNW 12.7 mph 24.2 mph N/A   Clear
3:55 PM 39.2 °F 30.8 °F 10.4 °F 31% 30.15 in 10.0 mi WNW 15.0 mph 23.0 mph N/A   Clear
4:35 PM 39.2 °F 32.0 °F 10.4 °F 31% 30.16 in 10.0 mi WNW 11.5 mph 24.2 mph N/A   Clear
5:35 PM 39.2 °F 32.5 °F 10.4 °F 31% 30.18 in 10.0 mi NW 10.4 mph 18.4 mph N/A   Clear
6:15 PM 39.2 °F 32.5 °F 10.4 °F 31% 30.19 in 10.0 mi WNW 10.4 mph - N/A   Clear
7:15 PM 37.4 °F 33.8 °F 10.4 °F 33% 30.21 in 10.0 mi NW 4.6 mph - N/A   Clear
8:15 PM 28.4 °F - 12.2 °F 51% 30.24 in 10.0 mi Calm Calm - N/A   Clear
9:55 PM 30.2 °F 26.7 °F 10.4 °F 44% 30.27 in 10.0 mi North 3.5 mph - N/A   Clear
10:55 PM 24.8 °F - 12.2 °F 59% 30.29 in 10.0 mi Calm Calm - N/A   Clear
11:15 PM 23.0 °F - 15.8 °F 74% 30.30 in 10.0 mi Calm Calm - N/A   Clear
11:35 PM 26.6 °F - 12.2 °F 55% 30.30 in 10.0 mi Calm Calm - N/A   Clear
11:55 PM 24.8 °F - 12.2 °F 59% 30.31 in 10.0 mi Calm Calm - N/A   Clear